Content
SEND FEEDBACK

Daily
Averages
Monthly
Summary
United States of America

ROCK HILL, NEW YORK


Home > North America > United States > New York
Elevation: 384 meters     Latitude: 41 35N     Longitude: 074 37W

WEATHER
 
SELECT A DAY
Number of Records: 443,161;   Date Range: 1/1/95 - 7/20/14
 
SHARE

PRINT THIS DATA

[ ← Previous Day ]
WEATHER ALMANAC - 6 MARCH, 2014
[ Next Day → ]
[ °F ]   °C
Weather ElementAverageHighLow
Temperature-9.4 °C-3 °C (2:35 pm)-17 °C (6:55 am)
Dewpoint-20.7 °C-17 °C (12:35 am)-23 °C (6:15 am)
Humidity42.6 %67 % (12:55 am)26 % (1:35 pm)
Barometer1031.5 hPa1034.2 hPa (8:55 am)1029.5 hPa (10:55 pm)
Wind Speed6.9 km/h16.7 km/h (12:15 pm)
Weather ElementAverage
Visibility16.1 km
Wind DirectionENE (70.6 °)

Weather ElementTotal
Precipitation---
Heating Degree Days28.3 (Base 18.3)
Averaged from 71 records on 6 March, 2014
WEATHER CONDITIONS BREAKOUT
WIND DIRECTION BREAKOUT
WEATHER BY HOUR - 6 MARCH, 2014
[ °F ]   °C
Local TimeTemperatureDewpointHumidityBarometerVisibilityWind DirectionWind SpeedGust SpeedPrecipitationEventsConditions
12:35 AM-11 °C-17 °C62 %1029.8 hPa16.1 kmNE (40°)5.6 km/hClear
12:55 AM-12 °C-17 °C67 %1029.8 hPa16.1 kmNE (50°)7.4 km/hClear
1:15 AM-12 °C-17 °C67 %1030.1 hPa16.1 kmNNE (20°)7.4 km/hClear
1:35 AM-12 °C-18 °C62 %1030.5 hPa16.1 kmNNE (30°)11.1 km/hClear
1:55 AM-12 °C-18 °C62 %1030.8 hPa16.1 kmNorth (10°)7.4 km/hClear
2:15 AM-12 °C-18 °C62 %1030.8 hPa16.1 kmNNE (20°)5.6 km/hClear
2:35 AM-13 °C-19 °C62 %1030.5 hPa16.1 kmNNE (30°)5.6 km/hClear
2:55 AM-13 °C-19 °C62 %1030.5 hPa16.1 kmNNE (20°)7.4 km/hClear
3:15 AM-14 °C-19 °C67 %1030.5 hPa16.1 kmNorth (10°)7.4 km/hClear
3:35 AM-14 °C-19 °C67 %1030.8 hPa16.1 kmNNE (20°)7.4 km/hClear
3:55 AM-14 °C-20 °C61 %1030.8 hPa16.1 kmCalmClear
4:15 AM-14 °C-21 °C56 %1031.2 hPa16.1 kmCalmClear
4:35 AM-14 °C-21 °C56 %1031.2 hPa16.1 kmCalmClear
4:55 AM-14 °C-21 °C56 %1031.5 hPa16.1 kmNNE (20°)5.6 km/hClear
5:15 AM-14 °C-22 °C52 %1031.8 hPa16.1 kmCalmClear
5:35 AM-14 °C-22 °C52 %1032.2 hPa16.1 kmCalmClear
5:55 AM-14 °C-22 °C52 %1032.5 hPa16.1 kmNorth (10°)7.4 km/hClear
6:15 AM-16 °C-23 °C56 %1032.2 hPa16.1 kmNorth (360°)9.3 km/hClear
6:35 AM-16 °C-22 °C61 %1032.2 hPa16.1 kmNorth (10°)7.4 km/hClear
6:55 AM-17 °C-23 °C61 %1032.5 hPa16.1 kmNorth (10°)7.4 km/hClear
7:15 AM-17 °C-22 °C66 %1032.5 hPa16.1 kmNorth (360°)7.4 km/hClear
7:35 AM-16 °C-21 °C66 %1033.2 hPa16.1 kmCalmClear
7:55 AM-14 °C-21 °C56 %1033.9 hPa16.1 kmCalmClear
8:15 AM-14 °C-22 °C52 %1033.9 hPa16.1 kmCalmClear
8:35 AM-13 °C-21 °C52 %1033.9 hPa16.1 kmCalmClear
8:55 AM-12 °C-22 °C44 %1034.2 hPa16.1 kmCalmClear
9:15 AM-11 °C-22 °C41 %1033.9 hPa16.1 kmCalmClear
9:35 AM-10 °C-21 °C41 %1033.9 hPa16.1 kmCalmClear
9:55 AM-10 °C-21 °C41 %1033.9 hPa16.1 kmCalmClear
10:15 AM-9 °C-21 °C38 %1034.2 hPa16.1 kmCalmClear
10:35 AM-8 °C-21 °C35 %1033.9 hPa16.1 kmCalmClear
10:55 AM-7 °C-19 °C39 %1033.9 hPa16.1 kmCalmClear
11:15 AM-7 °C-19 °C39 %1033.2 hPa16.1 kmCalmClear
11:35 AM-7 °C-21 °C33 %1033.2 hPa16.1 kmCalmClear
11:55 AM-6 °C-21 °C30 %1033.2 hPa16.1 kmSSE (150°)14.8 km/hClear
12:15 PM-6 °C-22 °C28 %1032.8 hPa16.1 kmSSE (150°)16.7 km/hClear
12:35 PM-6 °C-21 °C30 %1032.5 hPa16.1 kmESE (110°)16.7 km/hClear
12:55 PM-5 °C-21 °C28 %1031.8 hPa16.1 kmEast (90°)13 km/hClear
1:15 PM-5 °C-21 °C28 %1031.8 hPa16.1 kmESE (110°)16.7 km/hClear
1:35 PM-4 °C-21 °C26 %1031.8 hPa16.1 kmESE (110°)5.6 km/hClear
1:55 PM-4 °C-19 °C31 %1031.5 hPa16.1 kmCalmClear
2:15 PM-4 °C-19 °C31 %1031.2 hPa16.1 kmSSE (150°)13 km/hClear
2:35 PM-3 °C-18 °C31 %1031.2 hPa16.1 kmCalmClear
2:55 PM-3 °C-19 °C29 %1030.8 hPa16.1 kmSE (140°)11.1 km/hClear
3:15 PM-3 °C-19 °C29 %1030.5 hPa16.1 kmSE (140°)9.3 km/hClear
3:35 PM-3 °C-19 °C29 %1030.5 hPa16.1 kmESE (120°)13 km/hClear
3:55 PM-3 °C-20 °C26 %1030.5 hPa16.1 kmEast (100°)11.1 km/hClear
4:15 PM-3 °C-19 °C29 %1030.8 hPa16.1 kmSSE (160°)16.7 km/hClear
4:35 PM-4 °C-19 °C31 %1030.5 hPa16.1 kmSE (130°)11.1 km/hClear
4:55 PM-4 °C-20 °C28 %1030.5 hPa16.1 kmESE (120°)16.7 km/hClear
5:15 PM-4 °C-21 °C26 %1030.5 hPa16.1 kmSE (130°)14.8 km/hClear
5:35 PM-6 °C-21 °C30 %1030.8 hPa16.1 kmSE (140°)16.7 km/hClear
5:55 PM-6 °C-21 °C30 %1030.8 hPa16.1 kmSE (130°)16.7 km/hClear
6:15 PM-7 °C-22 °C30 %1031.2 hPa16.1 kmSE (140°)16.7 km/hClear
6:35 PM-7 °C-22 °C30 %1030.8 hPa16.1 kmESE (120°)13 km/hClear
6:55 PM-7 °C-22 °C30 %1030.8 hPa16.1 kmESE (120°)9.3 km/hClear
7:15 PM-8 °C-22 °C32 %1030.8 hPa16.1 kmESE (110°)7.4 km/hClear
7:35 PM-8 °C-22 °C32 %1030.8 hPa16.1 kmESE (120°)5.6 km/hClear
7:55 PM-8 °C-22 °C32 %1030.8 hPa16.1 kmESE (110°)7.4 km/hClear
8:15 PM-8 °C-23 °C30 %1030.5 hPa16.1 kmEast (100°)5.6 km/hClear
8:35 PM-9 °C-22 °C35 %1030.5 hPa16.1 kmEast (100°)7.4 km/hClear
8:55 PM-9 °C-22 °C35 %1030.8 hPa16.1 kmEast (100°)7.4 km/hClear
9:15 PM-9 °C-22 °C35 %1030.8 hPa16.1 kmEast (100°)9.3 km/hClear
9:35 PM-9 °C-22 °C35 %1030.5 hPa16.1 kmEast (90°)7.4 km/hClear
9:55 PM-10 °C-22 °C38 %1030.1 hPa16.1 kmEast (80°)7.4 km/hClear
10:15 PM-9 °C-22 °C35 %1029.8 hPa16.1 kmEast (80°)5.6 km/hClear
10:35 PM-10 °C-22 °C38 %1029.8 hPa16.1 kmEast (90°)5.6 km/hClear
10:55 PM-11 °C-22 °C41 %1029.5 hPa16.1 kmEast (80°)9.3 km/hClear
11:15 PM-11 °C-22 °C41 %1029.5 hPa16.1 kmEast (90°)7.4 km/hClear
11:35 PM-11 °C-22 °C41 %1029.5 hPa16.1 kmEast (90°)5.6 km/hClear
11:55 PM-11 °C-22 °C41 %1029.5 hPa16.1 kmEast (90°)7.4 km/hClear
Hourly data recorded from KMSV, located 0 kilometers away from Rock Hill, New York







STORIES FROM OUR PARTNERS